When you browse on this site, cookies collect data to enhance your experience and personalize the content and advertising you see.
Visit our Privacy Policy to learn more. By continuing to use the site, you agree to this use of cookies and data.
  • In Österreich
  • Länderverzeichnis
  • Für 7 Tage
  • Wassertemperatur
  • Wetterkarte
  • News
  • Widgets
  • user-avatar
    Anmelden

    Stündliche Wetter Smolan

    Heute, 20 Oktober, Sonntag

    Zeit Temperatur Niederschläge Wind Luftdruck Luftfeuchtigkeit
    00:00 +11°C° 0 mm 1 m/S 658 mmHg 69%
    01:00 +11°C° 0 mm 1 m/S 658 mmHg 68%
    02:00 +10°C° 0 mm 1 m/S 658 mmHg 69%
    03:00 +10°C° 0 mm 1 m/S 658 mmHg 68%
    04:00 +10°C° 0 mm 1 m/S 658 mmHg 67%
    05:00 +10°C° 0 mm 1 m/S 658 mmHg 66%
    06:00 +11°C° 0 mm 1 m/S 658 mmHg 63%
    07:00 +12°C° 0 mm 1 m/S 659 mmHg 60%
    08:00 +13°C° 0 mm 1 m/S 659 mmHg 53%
    09:00 +16°C° 0 mm 1 m/S 660 mmHg 48%
    10:00 +19°C° 0 mm 1 m/S 661 mmHg 44%
    11:00 +21°C° 0 mm 1 m/S 661 mmHg 39%
    12:00 +21°C° 0 mm 1 m/S 661 mmHg 38%
    13:00 +20°C° 0 mm 2 m/S 661 mmHg 37%
    14:00 +20°C° 0 mm 2 m/S 661 mmHg 37%
    15:00 +19°C° 0 mm 2 m/S 660 mmHg 44%
    16:00 +18°C° 0 mm 1 m/S 660 mmHg 51%
    17:00 +16°C° 0 mm 1 m/S 659 mmHg 58%
    18:00 +15°C° 0 mm 1 m/S 659 mmHg 62%
    19:00 +13°C° 0 mm 1 m/S 659 mmHg 67%
    20:00 +12°C° 0 mm 1 m/S 659 mmHg 72%
    21:00 +12°C° 0 mm 1 m/S 659 mmHg 72%
    22:00 +11°C° 0 mm 1 m/S 659 mmHg 72%
    23:00 +11°C° 0 mm 1 m/S 659 mmHg 73%

    Morgen, 21 Oktober, Montag

    Zeit Temperatur Niederschläge Wind Luftdruck Luftfeuchtigkeit
    00:00 +11°C° 0 mm 1 m/S 659 mmHg 73%
    01:00 +11°C° 0 mm 1 m/S 659 mmHg 74%
    02:00 +11°C° 0 mm 1 m/S 659 mmHg 74%
    03:00 +10°C° 0 mm 1 m/S 659 mmHg 74%
    04:00 +10°C° 0 mm 1 m/S 659 mmHg 74%
    05:00 +10°C° 0 mm 1 m/S 659 mmHg 74%
    06:00 +11°C° 0 mm 1 m/S 659 mmHg 71%
    07:00 +12°C° 0 mm 1 m/S 660 mmHg 67%
    08:00 +13°C° 0 mm 1 m/S 660 mmHg 63%
    09:00 +16°C° 0 mm 1 m/S 661 mmHg 56%
    10:00 +19°C° 0 mm 1 m/S 662 mmHg 48%
    11:00 +21°C° 0 mm 1 m/S 662 mmHg 40%
    12:00 +21°C° 0 mm 1 m/S 662 mmHg 40%
    13:00 +20°C° 0 mm 2 m/S 662 mmHg 39%
    14:00 +20°C° 0 mm 2 m/S 662 mmHg 39%
    15:00 +19°C° 0 mm 2 m/S 661 mmHg 44%
    16:00 +17°C° 0 mm 2 m/S 661 mmHg 50%
    17:00 +16°C° 0 mm 1 m/S 660 mmHg 56%
    18:00 +15°C° 0 mm 1 m/S 660 mmHg 59%
    19:00 +13°C° 0 mm 1 m/S 659 mmHg 62%
    20:00 +12°C° 0 mm 1 m/S 659 mmHg 65%
    21:00 +11°C° 0 mm 1 m/S 659 mmHg 65%
    22:00 +11°C° 0 mm 1 m/S 659 mmHg 66%
    23:00 +11°C° 0 mm 1 m/S 659 mmHg 67%

    übermorgen, 22 Oktober, Dienstag

    Zeit Temperatur Niederschläge Wind Luftdruck Luftfeuchtigkeit
    00:00 +11°C° 0 mm 1 m/S 659 mmHg 70%
    01:00 +10°C° 0 mm 1 m/S 659 mmHg 72%
    02:00 +10°C° 0 mm 1 m/S 659 mmHg 75%
    03:00 +10°C° 0 mm 1 m/S 659 mmHg 77%
    04:00 +10°C° 0 mm 1 m/S 659 mmHg 79%
    05:00 +9°C° 0 mm 1 m/S 659 mmHg 81%
    06:00 +10°C° 0 mm 1 m/S 659 mmHg 77%
    07:00 +11°C° 0 mm 1 m/S 660 mmHg 73%
    08:00 +12°C° 0 mm 1 m/S 660 mmHg 69%
    09:00 +14°C° 0 mm 2 m/S 661 mmHg 59%
    10:00 +16°C° 0 mm 2 m/S 661 mmHg 49%
    11:00 +18°C° 0 mm 2 m/S 662 mmHg 39%
    12:00 +19°C° 0 mm 3 m/S 662 mmHg 37%
    13:00 +19°C° 0 mm 3 m/S 662 mmHg 34%
    14:00 +20°C° 0 mm 3 m/S 662 mmHg 32%
    15:00 +18°C° 0 mm 2 m/S 661 mmHg 37%
    16:00 +16°C° 0 mm 2 m/S 660 mmHg 42%
    17:00 +15°C° 0 mm 2 m/S 660 mmHg 47%
    18:00 +13°C° 0 mm 2 m/S 660 mmHg 50%
    19:00 +12°C° 0 mm 2 m/S 659 mmHg 53%
    20:00 +9°C° 0 mm 2 m/S 659 mmHg 56%
    21:00 +9°C° 0 mm 2 m/S 659 mmHg 58%
    22:00 +9°C° 0 mm 2 m/S 659 mmHg 60%
    23:00 +9°C° 0 mm 2 m/S 659 mmHg 63%

    23 Oktober, Mittwoch

    Zeit Temperatur Niederschläge Wind Luftdruck Luftfeuchtigkeit
    00:00 +8°C° 0 mm 2 m/S 659 mmHg 64%
    01:00 +8°C° 0 mm 2 m/S 659 mmHg 66%
    02:00 +9°C° 0 mm 1 m/S 659 mmHg 68%
    03:00 +9°C° 0 mm 1 m/S 659 mmHg 68%
    04:00 +8°C° 0 mm 1 m/S 658 mmHg 67%
    05:00 +8°C° 0 mm 1 m/S 658 mmHg 66%
    06:00 +9°C° 0 mm 1 m/S 659 mmHg 60%
    07:00 +10°C° 0 mm 1 m/S 659 mmHg 53%
    08:00 +11°C° 0 mm 1 m/S 659 mmHg 47%
    09:00 +14°C° 0 mm 1 m/S 660 mmHg 38%
    10:00 +18°C° 0 mm 1 m/S 661 mmHg 30%
    11:00 +20°C° 0 mm 1 m/S 662 mmHg 21%
    12:00 +19°C° 0 mm 2 m/S 661 mmHg 22%
    13:00 +20°C° 0 mm 2 m/S 661 mmHg 22%
    14:00 +20°C° 0 mm 2 m/S 661 mmHg 23%
    15:00 +18°C° 0 mm 2 m/S 660 mmHg 30%
    16:00 +16°C° 0 mm 1 m/S 659 mmHg 37%
    17:00 +14°C° 0 mm 1 m/S 658 mmHg 45%
    18:00 +13°C° 0 mm 1 m/S 658 mmHg 48%
    19:00 +12°C° 0 mm 1 m/S 658 mmHg 51%
    20:00 +10°C° 0 mm 1 m/S 658 mmHg 54%
    21:00 +10°C° 0 mm 1 m/S 658 mmHg 53%
    22:00 +10°C° 0 mm 1 m/S 658 mmHg 52%
    23:00 +9°C° 0 mm 1 m/S 658 mmHg 51%

    24 Oktober, Donnerstag

    Zeit Temperatur Niederschläge Wind Luftdruck Luftfeuchtigkeit
    00:00 +9°C° 0 mm 1 m/S 657 mmHg 51%
    01:00 +9°C° 0 mm 1 m/S 657 mmHg 51%
    02:00 +9°C° 0 mm 1 m/S 657 mmHg 51%
    03:00 +9°C° 0 mm 1 m/S 657 mmHg 52%
    04:00 +9°C° 0 mm 1 m/S 657 mmHg 52%
    05:00 +8°C° 0 mm 1 m/S 656 mmHg 53%
    06:00 +9°C° 0 mm 1 m/S 657 mmHg 51%
    07:00 +10°C° 0 mm 1 m/S 657 mmHg 50%
    08:00 +11°C° 0 mm 1 m/S 657 mmHg 48%
    09:00 +14°C° 0 mm 1 m/S 658 mmHg 42%
    10:00 +16°C° 0 mm 1 m/S 659 mmHg 36%
    11:00 +20°C° 0 mm 1 m/S 659 mmHg 30%
    12:00 +20°C° 0 mm 1 m/S 659 mmHg 30%
    13:00 +19°C° 0 mm 2 m/S 659 mmHg 30%
    14:00 +20°C° 0 mm 2 m/S 659 mmHg 29%
    15:00 +19°C° 0 mm 1 m/S 658 mmHg 36%
    16:00 +16°C° 0 mm 1 m/S 657 mmHg 43%
    17:00 +14°C° 0 mm 1 m/S 656 mmHg 49%
    18:00 +13°C° 0 mm 1 m/S 656 mmHg 53%
    19:00 +11°C° 0 mm 1 m/S 656 mmHg 56%
    20:00 +10°C° 0 mm 1 m/S 655 mmHg 60%
    21:00 +10°C° 0 mm 1 m/S 656 mmHg 60%
    22:00 +9°C° 0 mm 1 m/S 656 mmHg 60%
    23:00 +9°C° 0 mm 1 m/S 656 mmHg 60%

    25 Oktober, Freitag

    Zeit Temperatur Niederschläge Wind Luftdruck Luftfeuchtigkeit
    00:00 +9°C° 0 mm 1 m/S 655 mmHg 59%
    01:00 +9°C° 0 mm 1 m/S 655 mmHg 58%
    02:00 +9°C° 0 mm 1 m/S 655 mmHg 57%
    03:00 +8°C° 0 mm 1 m/S 655 mmHg 56%
    04:00 +8°C° 0 mm 1 m/S 655 mmHg 54%
    05:00 +8°C° 0 mm 1 m/S 655 mmHg 53%
    06:00 +9°C° 0 mm 1 m/S 655 mmHg 51%
    07:00 +10°C° 0 mm 1 m/S 656 mmHg 50%
    08:00 +11°C° 0 mm 1 m/S 656 mmHg 48%
    09:00 +13°C° 0 mm 1 m/S 657 mmHg 43%
    10:00 +16°C° 0 mm 1 m/S 658 mmHg 38%
    11:00 +19°C° 0 mm 1 m/S 659 mmHg 33%
    12:00 +19°C° 0 mm 1 m/S 658 mmHg 32%
    13:00 +19°C° 0 mm 2 m/S 658 mmHg 32%
    14:00 +19°C° 0 mm 2 m/S 658 mmHg 32%
    15:00 +17°C° 0 mm 2 m/S 657 mmHg 38%
    16:00 +15°C° 0 mm 1 m/S 657 mmHg 45%
    17:00 +14°C° 0 mm 1 m/S 656 mmHg 51%
    18:00 +12°C° 0 mm 1 m/S 656 mmHg 54%
    19:00 +11°C° 0 mm 1 m/S 656 mmHg 57%
    20:00 +10°C° 0 mm 1 m/S 656 mmHg 60%
    21:00 +9°C° 0 mm 1 m/S 656 mmHg 59%
    22:00 +9°C° 0 mm 1 m/S 656 mmHg 58%
    23:00 +9°C° 0 mm 1 m/S 656 mmHg 57%
    Mehr zeigen